Location: Anjeux
(47.8815°N, 6.2076°E)
Time: 15:40:39
(UTC+00:00)

CENTAUR R/B - Pass Details

Date: 05 March 2021
Orbit: 742 x 1446 km, 63.4° (Epoch: 31 March)

Event Time Altitude Azimuth Distance (km) Brightness Sun altitude
Exits shadow 03:15:48 - 319° (NW) 3,629 5.3 -29.1°
Reaches altitude 10° 03:17:15 10° 323° (NW) 3,168 5.0 -28.8°
Maximum altitude 03:24:51 51° 38° (NE) 1,637 3.9 -27.7°
Drops below altitude 10° 03:33:21 10° 113° (ESE) 3,531 5.9 -26.4°
Sets 03:36:31 0° 118° (ESE) 4,529 6.5 -25.9°
